Wind_Speed
36 33 32 36 35 29 30 33 35 37 36 38 38 31 25 25 23 20 16 17 15 15 16 17 18 19 21 21 19 20 25 24 24 25 29 31 33 33 34 35 40 41 42 42 41
35 36 35 36 37 37 36 35 36 36 37 35 35 30 26 24 23 21 19 17 17 17 17 17 19 21 23 21 21 19 21 24 24 27 30 32 33 29 27 26 28 31 36 41 43
41 39 38 40 44 39 35 35 40 39 41 32 35 32 28 26 26 23 22 20 17 18 17 19 20 22 23 24 24 22 24 23 26 28 29 30 29 23 22 22 24 27 29 32 38
41 40 41 42 38 35 37 39 41 39 37 34 32 32 30 29 28 27 27 24 22 19 20 20 22 22 25 27 27 25 23 24 26 27 25 26 22 21 22 20 25 26 28 30 31
48 47 46 40 38 41 40 39 37 39 38 36 35 34 34 33 32 29 30 30 27 25 22 21 22 23 27 27 28 28 24 25 27 29 28 29 29 27 26 27 27 27 29 31 32
45 38 35 38 44 44 40 37 39 43 45 45 38 39 39 40 36 34 32 31 31 30 26 24 22 23 25 28 29 30 27 26 27 29 31 33 33 32 32 32 32 32 34 34 32
41 40 45 46 40 40 40 44 46 49 51 50 49 49 48 44 41 38 35 35 33 33 31 28 25 24 24 27 31 32 30 28 30 29 30 33 35 34 34 35 35 36 37 36 35
49 48 48 42 43 46 50 51 53 57 58 57 56 55 53 52 48 43 41 39 38 37 34 32 29 26 25 26 30 31 32 33 32 33 32 33 34 33 33 35 36 37 37 36 37
48 48 48 51 53 57 59 60 64 64 65 64 59 58 58 55 50 46 44 43 41 41 40 35 32 30 27 28 31 33 33 35 35 35 35 34 36 34 35 35 37 37 36 37 38
50 54 55 60 62 63 67 67 70 70 67 63 63 61 58 56 54 50 47 45 45 43 42 40 36 34 33 32 33 34 37 37 37 37 36 36 36 33 35 35 35 36 37 38 38
56 57 60 63 66 69 72 73 72 74 71 68 66 64 62 59 56 53 50 49 48 46 46 43 42 39 37 36 35 36 38 39 39 35 35 33 32 35 37 37 36 35 36 37 37
60 62 66 68 71 71 73 72 69 65 62 60 59 58 58 57 56 53 52 52 52 51 49 47 45 42 42 40 39 38 39 39 38 38 33 34 33 35 37 38 37 36 35 34 35
66 66 65 67 69 66 61 56 53 53 51 50 50 49 49 51 53 54 53 52 52 52 51 50 46 46 44 44 43 42 40 41 42 39 40 38 37 37 38 38 39 38 35 32 32
62 65 65 59 52 49 48 47 46 44 44 42 44 46 48 47 49 51 53 53 53 53 52 52 48 50 47 46 45 46 42 44 44 44 45 42 40 40 38 36 35 38 37 32 30
52 45 41 38 38 37 37 35 35 34 38 41 44 43 42 43 46 48 49 50 52 54 55 53 53 52 51 47 49 47 46 47 46 47 47 44 44 43 38 39 37 38 37 36 33
35 33 33 33 33 32 29 27 29 29 31 31 33 37 42 46 45 44 46 48 49 51 54 55 56 55 55 52 53 49 49 49 48 48 47 50 47 46 43 40 41 40 37 36 36
33 33 33 31 30 29 31 32 32 30 27 25 26 27 29 33 41 43 44 43 48 48 51 52 52 55 55 55 55 55 54 54 53 51 47 49 49 49 50 48 46 44 38 24 43
32 32 29 27 28 31 32 31 30 29 29 29 30 31 28 27 28 33 41 43 42 46 49 49 53 52 49 55 57 55 57 56 57 55 54 52 47 49 49 52 52 52 47 46 47
34 32 31 31 30 31 30 32 31 30 31 30 30 28 31 31 28 29 33 40 43 42 45 49 53 50 52 53 54 57 56 58 56 57 58 57 56 51 50 48 51 54 53 50 49
36 34 34 33 33 34 35 34 33 32 33 31 32 34 37 34 35 31 26 35 41 43 43 44 51 52 51 52 56 57 57 57 60 59 58 58 57 57 59 55 51 48 48 46 46
38 37 36 37 37 38 36 35 34 37 34 32 36 41 42 39 39 34 32 31 37 44 44 43 45 50 53 55 54 53 58 59 58 59 61 61 60 65 59 62 54 55 51 40 24
41 40 39 39 40 41 40 39 38 40 38 37 42 42 41 40 43 45 38 33 33 41 47 48 48 48 49 53 55 56 58 58 59 61 62 60 58 66 67 66 63 61 60 39 29
43 42 42 42 42 42 42 42 43 44 43 43 43 42 43 45 43 45 47 40 36 36 42 49 52 52 52 52 52 54 57 59 61 62 61 64 56 69 62 67 69 70 59 57 59
46 45 46 43 44 45 46 43 46 45 46 47 46 47 46 47 52 52 54 46 46 40 42 41 53 57 58 59 58 52 55 58 61 60 64 64 65 67 66 67 59 64 47 68 67
47 47 47 46 48 48 46 47 48 45 51 51 51 49 50 53 56 56 55 52 52 45 48 45 45 49 62 64 65 63 61 61 60 61 63 64 64 65 68 69 75 72 69 71 71
47 46 48 47 49 50 49 50 56 52 55 53 54 54 57 58 56 60 57 53 56 53 49 45 49 46 46 59 68 68 68 68 67 65 63 64 62 66 67 66 70 71 72 73 71
51 51 50 49 51 54 54 56 54 58 57 59 59 60 61 59 62 62 56 58 55 56 52 47 47 47 45 48 57 61 72 76 75 75 71 68 67 66 65 66 65 68 69 69 71
Wind_Direction
246 249 259 268 266 272 269 285 294 295 297 297 313 312 296 298 297 285 274 261 260 260 262 262 259 260 254 255 267 265 254 254 255 261 262 263 262 261 263 258 253 252 256 258 258
248 258 265 265 269 271 276 284 291 292 295 299 306 305 296 291 293 288 279 273 264 264 264 270 269 265 253 249 261 266 256 254 257 261 265 260 256 256 260 264 264 263 260 259 261
255 258 262 266 263 263 271 279 285 285 289 298 303 305 291 288 285 290 284 274 265 263 262 262 266 260 255 246 251 259 262 263 263 265 268 259 256 259 263 267 268 270 271 264 259
255 254 261 256 255 267 276 279 283 285 284 290 294 294 290 284 282 279 283 281 271 264 260 259 257 260 256 248 248 254 261 268 269 265 264 260 263 260 260 258 267 266 270 272 268
250 252 250 256 268 270 270 272 278 280 284 288 290 288 288 284 279 278 279 279 276 271 263 259 261 260 253 252 254 256 257 261 267 263 262 262 264 267 267 268 268 263 261 263 269
239 242 254 260 263 263 265 272 279 284 285 285 285 287 286 284 278 276 276 275 275 274 269 264 261 260 260 254 256 258 259 261 267 267 262 262 263 263 264 266 269 265 263 265 268
249 252 256 259 256 265 272 276 278 279 283 285 287 286 284 283 279 274 272 271 272 271 269 264 261 261 263 260 256 258 261 264 264 265 265 264 263 266 271 269 266 263 263 266 269
244 246 249 260 267 269 275 281 280 280 281 282 283 284 282 281 280 273 272 270 269 269 266 264 261 259 258 260 260 262 261 264 263 265 269 270 271 272 271 267 265 265 266 265 266
247 249 264 270 270 275 278 280 279 280 282 282 280 279 280 277 277 275 271 268 267 268 269 266 263 261 256 256 257 257 260 259 259 260 264 267 270 272 269 268 266 265 265 265 265
256 265 270 271 276 276 277 277 279 282 280 280 279 277 275 274 274 271 269 266 266 264 264 264 263 262 259 255 255 255 255 258 260 263 263 268 271 272 270 270 270 266 265 265 265
267 268 273 275 277 277 277 279 280 281 281 280 278 275 272 271 269 266 264 264 263 263 263 261 258 258 258 256 255 256 255 257 260 262 266 269 273 271 271 271 272 271 266 266 268
268 272 274 277 277 278 279 279 279 280 279 276 274 270 268 265 263 261 259 259 261 263 262 262 259 256 254 254 253 255 257 257 259 261 263 265 266 268 269 270 270 271 272 271 267
270 274 276 277 277 279 279 279 278 278 275 273 272 270 267 265 261 259 257 257 258 259 257 256 258 252 252 252 252 252 253 256 254 253 255 258 261 264 267 269 269 271 273 273 269
272 275 277 278 277 276 276 276 275 275 275 275 272 270 268 266 264 261 258 256 254 254 252 254 255 249 249 248 251 252 254 255 256 253 255 256 256 262 266 270 271 270 272 272 267
271 269 270 271 273 276 278 281 284 284 282 276 272 271 270 270 267 260 259 258 253 252 251 251 248 246 246 246 248 249 250 253 254 254 255 255 257 260 263 265 267 269 268 266 264
260 260 265 272 274 275 281 289 293 297 295 288 284 277 271 270 270 268 262 256 255 253 251 250 248 247 246 245 247 248 247 251 252 254 256 256 253 257 256 257 263 264 267 270 262
259 265 273 275 274 277 286 292 296 297 301 294 291 287 281 275 269 269 266 263 257 254 253 251 249 249 249 247 247 247 247 247 247 249 250 255 257 254 255 256 256 258 259 300 263
265 271 272 274 279 282 289 298 297 299 308 304 308 308 300 286 279 271 264 264 263 257 255 253 252 247 249 250 249 246 249 249 249 250 250 250 251 255 259 261 260 262 259 251 259
267 271 273 278 282 285 292 295 303 303 307 302 307 308 318 309 296 282 267 260 260 259 257 254 254 252 247 250 251 250 248 249 249 250 250 253 252 251 251 256 262 262 265 267 269
269 273 275 280 285 289 293 297 298 301 305 301 302 307 314 313 312 301 293 262 260 260 257 256 256 254 250 248 250 252 250 250 250 250 250 249 252 254 253 249 249 260 263 266 273
264 270 275 278 283 288 292 291 293 299 298 296 299 308 307 305 310 309 302 289 262 257 260 260 258 256 254 251 250 249 252 251 251 255 252 251 252 253 252 254 253 252 252 256 279
266 271 275 278 282 284 286 287 290 297 294 298 303 309 310 312 316 312 303 296 284 268 260 260 262 262 259 255 250 248 248 249 249 241 252 252 256 257 255 253 253 256 253 244 231
266 267 270 279 282 282 284 283 286 293 296 299 303 306 306 306 309 315 309 296 285 279 270 262 259 260 263 263 259 254 249 247 246 248 250 248 236 251 254 259 255 255 256 246 225
268 268 270 280 280 282 280 278 281 290 296 296 298 300 301 302 306 309 310 299 294 285 275 270 262 256 258 259 260 258 259 253 249 246 244 247 248 250 250 250 250 253 254 254 252
269 270 273 278 279 284 279 286 285 290 294 297 297 295 295 301 305 306 309 300 295 292 287 279 270 264 255 254 257 258 257 258 258 254 249 245 244 246 248 249 251 254 253 254 254
269 270 275 276 278 279 280 282 285 289 290 292 293 298 297 298 299 302 307 301 295 290 291 280 275 273 268 258 252 253 253 254 256 256 255 252 251 247 244 248 252 253 252 252 253
270 273 274 276 277 278 282 284 287 287 290 293 293 294 294 296 295 299 298 296 294 291 286 281 277 278 277 275 263 256 255 254 253 252 253 254 254 252 251 247 247 251 253 255 256
Height
10888 10889 10890 10891 10892 10893 10893 10892 10891 10890 10891 10891 10889 10887 10885 10885 10883 10882 10881 10881 10881 10883 10883 10883 10883 10882 10881 10882 10882 10883 10884 10885 10887 10887 10886 10885 10884 10885 10886 10889 10892 10893 10895 10895 10896
10883 10883 10884 10885 10886 10886 10886 10885 10884 10885 10886 10885 10884 10882 10881 10880 10880 10878 10878 10877 10876 10877 10877 10877 10878 10878 10877 10877 10877 10878 10879 10880 10881 10880 10879 10878 10877 10880 10881 10884 10886 10887 10887 10888 10889
10875 10876 10877 10879 10879 10879 10879 10878 10879 10878 10880 10879 10878 10878 10877 10876 10876 10875 10874 10873 10872 10871 10872 10872 10873 10872 10872 10873 10872 10873 10874 10876 10876 10875 10872 10872 10873 10877 10878 10880 10881 10880 10880 10880 10880
10868 10869 10870 10871 10871 10870 10870 10871 10871 10871 10872 10872 10872 10871 10871 10871 10871 10870 10870 10869 10868 10866 10866 10866 10867 10867 10867 10867 10867 10868 10869 10871 10870 10869 10868 10868 10870 10873 10875 10880 10877 10876 10874 10873 10873
10859 10861 10862 10862 10863 10862 10863 10863 10862 10863 10864 10864 10865 10865 10865 10865 10864 10864 10864 10864 10864 10863 10861 10861 10861 10862 10861 10862 10862 10863 10864 10865 10864 10865 10864 10864 10866 10868 10870 10870 10870 10870 10868 10867 10866
10850 10851 10853 10854 10855 10854 10854 10854 10854 10854 10854 10856 10857 10857 10857 10857 10857 10857 10857 10857 10858 10857 10856 10856 10856 10856 10855 10856 10856 10856 10859 10860 10860 10859 10858 10858 10859 10861 10862 10863 10863 10862 10861 10861 10861
10843 10844 10845 10846 10846 10845 10845 10845 10844 10845 10846 10847 10847 10847 10848 10848 10848 10849 10849 10849 10850 10850 10850 10850 10850 10850 10850 10850 10850 10850 10852 10854 10853 10853 10852 10852 10852 10854 10855 10855 10855 10855 10855 10855 10855
10833 10834 10835 10836 10836 10836 10835 10833 10833 10834 10835 10835 10836 10836 10836 10837 10838 10839 10840 10840 10841 10841 10842 10842 10843 10844 10844 10844 10844 10844 10845 10847 10847 10847 10846 10846 10846 10847 10847 10847 10846 10846 10848 10849 10848
10825 10825 10826 10826 10825 10825 10824 10823 10823 10823 10823 10823 10823 10825 10824 10826 10827 10828 10828 10829 10831 10832 10833 10835 10837 10838 10838 10837 10836 10837 10838 10839 10840 10840 10840 10839 10838 10840 10838 10838 10839 10839 10840 10841 10840
10818 10817 10816 10815 10815 10814 10814 10812 10810 10810 10810 10809 10809 10810 10811 10813 10815 10816 10816 10817 10819 10821 10823 10826 10829 10830 10830 10830 10830 10830 10829 10831 10832 10833 10833 10832 10832 10831 10830 10830 10831 10832 10833 10833 10833
10807 10807 10805 10805 10802 10801 10800 10799 10796 10795 10794 10794 10794 10794 10795 10798 10800 10803 10802 10804 10806 10809 10812 10815 10817 10820 10821 10822 10822 10823 10823 10824 10824 10826 10826 10826 10824 10823 10823 10823 10823 10824 10825 10825 10825
10796 10796 10795 10793 10790 10788 10785 10784 10781 10780 10778 10777 10777 10778 10779 10782 10784 10786 10788 10790 10793 10796 10799 10803 10806 10811 10810 10812 10814 10815 10816 10817 10819 10819 10819 10818 10815 10815 10815 10815 10816 10815 10816 10818 10817
10785 10784 10781 10779 10776 10775 10772 10770 10767 10766 10767 10765 10764 10763 10765 10766 10769 10771 10775 10777 10780 10783 10785 10788 10796 10796 10799 10801 10803 10805 10807 10809 10809 10811 10810 10810 10808 10807 10807 10808 10809 10809 10810 10812 10812
10774 10771 10769 10767 10764 10762 10760 10759 10758 10756 10754 10754 10752 10751 10751 10753 10755 10758 10760 10764 10766 10769 10771 10775 10783 10782 10787 10790 10793 10794 10800 10799 10801 10802 10801 10803 10800 10800 10801 10801 10802 10802 10803 10806 10806
10762 10760 10759 10758 10755 10754 10752 10749 10748 10746 10745 10742 10742 10741 10741 10741 10742 10746 10748 10750 10752 10755 10758 10763 10765 10768 10772 10779 10779 10783 10787 10788 10792 10793 10794 10796 10794 10792 10794 10792 10793 10794 10796 10797 10798
10753 10753 10752 10750 10748 10745 10744 10742 10740 10739 10737 10734 10731 10731 10731 10730 10731 10732 10734 10736 10739 10741 10743 10747 10751 10754 10759 10765 10766 10772 10774 10777 10779 10782 10787 10785 10788 10784 10785 10784 10784 10785 10788 10790 10791
10746 10745 10744 10742 10740 10738 10737 10736 10734 10732 10730 10726 10723 10722 10720 10720 10720 10721 10722 10723 10725 10729 10729 10733 10738 10741 10746 10751 10753 10757 10761 10763 10766 10769 10774 10774 10778 10777 10773 10776 10774 10777 10783 10794 10786
10737 10737 10737 10735 10733 10731 10730 10728 10726 10725 10723 10719 10717 10714 10712 10711 10710 10710 10711 10712 10714 10715 10716 10721 10720 10727 10735 10734 10737 10745 10745 10750 10754 10758 10760 10761 10766 10765 10768 10768 10768 10767 10773 10779 10776
10728 10728 10728 10727 10726 10724 10723 10721 10720 10718 10716 10713 10711 10708 10706 10702 10701 10699 10699 10702 10702 10704 10704 10708 10706 10716 10719 10721 10724 10726 10734 10735 10742 10745 10747 10750 10753 10754 10753 10758 10757 10758 10763 10769 10770
10719 10719 10719 10719 10718 10716 10715 10714 10711 10710 10708 10706 10704 10701 10698 10696 10693 10690 10691 10690 10691 10691 10693 10695 10696 10700 10706 10709 10710 10713 10719 10723 10724 10731 10735 10738 10740 10742 10740 10744 10745 10748 10752 10758 10764
10709 10709 10709 10709 10709 10708 10707 10706 10704 10701 10700 10698 10696 10695 10693 10690 10688 10684 10683 10681 10681 10681 10682 10683 10684 10686 10690 10695 10699 10701 10704 10708 10714 10718 10720 10725 10728 10719 10731 10730 10738 10735 10741 10760 10775
10699 10700 10699 10699 10700 10698 10699 10697 10696 10693 10692 10691 10689 10686 10685 10684 10682 10679 10676 10675 10671 10670 10670 10672 10672 10672 10675 10678 10682 10687 10691 10692 10699 10698 10706 10713 10723 10711 10713 10717 10719 10724 10724 10762 10781
10689 10690 10688 10689 10689 10689 10688 10688 10686 10685 10683 10681 10679 10677 10675 10674 10673 10671 10670 10668 10665 10662 10659 10660 10661 10660 10661 10662 10664 10670 10673 10677 10682 10684 10689 10694 10705 10694 10703 10702 10703 10698 10723 10729 10734
10678 10678 10677 10679 10678 10678 10677 10678 10676 10675 10674 10672 10670 10666 10664 10662 10660 10659 10656 10658 10654 10653 10649 10649 10647 10648 10648 10647 10648 10654 10654 10658 10662 10667 10669 10676 10680 10682 10686 10689 10678 10695 10704 10699 10707
10666 10668 10667 10668 10666 10666 10666 10667 10665 10665 10662 10660 10658 10655 10652 10650 10648 10645 10644 10643 10640 10641 10637 10637 10634 10632 10634 10633 10632 10636 10640 10640 10643 10645 10652 10655 10662 10664 10665 10667 10666 10674 10684 10687 10686
10654 10655 10654 10656 10655 10655 10656 10655 10653 10654 10649 10649 10645 10645 10639 10638 10633 10630 10632 10628 10626 10627 10622 10623 10619 10618 10618 10615 10616 10619 10622 10621 10625 10627 10632 10636 10644 10642 10647 10653 10652 10659 10657 10664 10673
10640 10641 10642 10644 10642 10641 10645 10639 10638 10638 10637 10634 10633 10630 10628 10623 10620 10618 10617 10614 10612 10611 10610 10608 10606 10604 10605 10599 10600 10606 10601 10601 10605 10607 10613 10619 10621 10625 10630 10634 10638 10635 10644 10649 10653